Weather History for Sparta, WI

Change the Weather History Date:

Wednesday, November 9, 2011

  Actual Average Record
Temperature  
Mean Temperature 34 °F -  
Max Temperature 39 °F 45 °F 70 °F (2010)
Min Temperature 29 °F 28 °F 4 °F (1991)
Degree Days  
Heating Degree Days 31    
Moisture  
Dew Point 33 °F    
Average Humidity 92    
Maximum Humidity 100    
Minimum Humidity 72    
Precipitation  
Precipitation 0.48 in - - ()
Sea Level Pressure  
Sea Level Pressure 29.92 in    
Wind  
Wind Speed 7 mph (NNW)    
Max Wind Speed 12 mph    
Max Gust Speed 18 mph    
Visibility 7 miles    
Events Rain , Snow    
Averages and records for this station are not official NWS values.
T = Trace of Precipitation, MM = Missing Value Source: NWS Daily Summary

Daily Weather History Graph

Daily Weather History Graph

Search for Another Location

Airport:

Trip Planner

Search our weather history database for the weather conditions in past years. The results will help you decide how hot, cold, wet, or windy it might be!

Date:

Astronomy

Nov. 09, 2011 Rise Set
Actual Time 6:49 AM CST 4:43 PM CST
Civil Twilight 6:18 AM CST 5:14 PM CST
Nautical Twilight 5:44 AM CST 5:48 PM CST
Astronomical Twilight 5:10 AM CST 6:22 PM CST
Moon 3:54 PM CST (11/9) 5:45 AM CST (11/9)
Length of Visible Light 10h 55m
Length of Day
9h 53m
Waxing Gibbous, 99% of the Moon is Illuminated
Nov 9
Waxing Gibbous
Nov 10
Full
Nov 18
Last Quarter
Nov 25
New
Dec 2
First Quarter

Hourly Weather History & Observations

Time (CST) Temp. Windchill Dew Point Humidity Pressure Visibility Wind Dir Wind Speed Gust Speed Precip Events Conditions
12:15 AM 38.8 °F 33.2 °F 34.2 °F 83% 30.04 in 7.0 mi North 8.1 mph - 0.01 in Rain Light Rain
12:35 AM 38.5 °F 34.1 °F 34.7 °F 86% 30.04 in 10.0 mi North 5.8 mph - 0.02 in Rain Light Rain
12:55 AM 38.1 °F 32.3 °F 34.7 °F 87% 30.03 in 10.0 mi NNE 8.1 mph - 0.02 in Rain Light Rain
1:15 AM 38.1 °F 32.3 °F 34.7 °F 87% 30.03 in 10.0 mi North 8.1 mph - N/A Rain Light Rain
1:35 AM 37.9 °F 31.5 °F 34.9 °F 89% 30.01 in 10.0 mi NNE 9.2 mph - N/A   Drizzle
1:55 AM 37.8 °F 31.8 °F 35.1 °F 90% 30.01 in 10.0 mi NNE 8.1 mph - N/A Rain Light Rain
2:15 AM 37.6 °F 31.6 °F 35.4 °F 92% 30.00 in 7.0 mi NNE 8.1 mph - N/A Rain Light Rain
2:35 AM 37.4 °F 30.8 °F 35.6 °F 93% 29.99 in 10.0 mi NNE 9.2 mph - 0.01 in Rain Light Rain
2:55 AM 37.4 °F 32.1 °F 35.6 °F 93% 29.98 in 10.0 mi NNE 6.9 mph - 0.01 in Rain Light Rain
3:15 AM 37.4 °F 32.8 °F 35.6 °F 93% 29.97 in 10.0 mi North 5.8 mph - N/A   Overcast
3:35 AM 37.2 °F 34.7 °F 35.4 °F 93% 29.97 in 10.0 mi North 3.5 mph - N/A Rain Light Rain
3:55 AM 37.0 °F 33.3 °F 34.7 °F 91% 29.96 in 10.0 mi North 4.6 mph - N/A Rain Light Rain
4:15 AM 36.9 °F 32.2 °F 34.2 °F 90% 29.97 in 10.0 mi North 5.8 mph - N/A Rain Light Rain
4:35 AM 36.7 °F 29.4 °F 33.8 °F 89% 29.94 in 10.0 mi North 10.4 mph - N/A Rain Light Rain
4:55 AM 36.5 °F 31.0 °F 33.8 °F 90% 29.98 in 7.0 mi NNE 6.9 mph - N/A Rain Light Rain
5:15 AM 36.1 °F 28.7 °F 33.8 °F 91% 29.96 in 7.0 mi North 10.4 mph - 0.01 in Rain Rain
5:35 AM 35.4 °F 27.3 °F 33.8 °F 94% 29.93 in 5.0 mi North 11.5 mph 18.4 mph 0.03 in Rain Rain
5:55 AM 34.5 °F 26.2 °F 33.3 °F 95% 29.94 in 3.0 mi North 11.5 mph 16.1 mph 0.05 in Snow Light Snow
6:15 AM 33.1 °F 25.5 °F 32.4 °F 97% 29.93 in 0.8 mi NNW 9.2 mph - 0.05 in Snow Light Snow
6:35 AM 32.4 °F 25.3 °F 32.2 °F 99% 29.92 in 1.0 mi North 8.1 mph - 0.08 in Snow Snow
6:55 AM 32.4 °F 27.9 °F 32.4 °F 100% 29.92 in 3.0 mi North 4.6 mph - 0.10 in Snow Light Snow
7:15 AM 32.5 °F 26.2 °F 32.4 °F 99% 29.92 in 5.0 mi North 6.9 mph - 0.01 in Snow Light Snow
7:35 AM 32.9 °F 27.5 °F 32.4 °F 98% 29.92 in 3.0 mi North 5.8 mph - 0.02 in Snow Light Snow
8:15 AM 32.5 °F 23.7 °F 32.4 °F 99% 29.92 in 0.8 mi North 11.5 mph 16.1 mph 0.01 in Snow Light Snow
8:35 AM 32.5 °F 25.5 °F 32.4 °F 99% 29.92 in 0.8 mi North 8.1 mph - 0.03 in Snow Light Snow
8:55 AM 32.4 °F 25.3 °F 32.2 °F 99% 29.91 in 0.8 mi North 8.1 mph - 0.08 in Snow Light Snow
9:15 AM 32.4 °F 26.9 °F 32.4 °F 100% 29.90 in 0.5 mi NNW 5.8 mph - 0.03 in Snow Light Snow
9:55 AM 32.5 °F 24.8 °F 32.4 °F 99% 29.88 in 0.8 mi NNW 9.2 mph - 0.07 in Snow Light Snow
10:35 AM 32.5 °F 26.2 °F 32.4 °F 99% 29.86 in 0.5 mi North 6.9 mph - 0.02 in Snow Light Snow
10:55 AM 32.7 °F 28.3 °F 32.4 °F 99% 29.88 in 0.8 mi North 4.6 mph - 0.09 in Snow Light Snow
11:15 AM 32.9 °F 26.7 °F 32.4 °F 98% 29.87 in 0.8 mi NNW 6.9 mph - 0.02 in Snow Light Snow
11:55 AM 32.9 °F 25.9 °F 32.4 °F 98% 29.86 in 2.5 mi NW 8.1 mph - 0.04 in Snow Light Snow
12:15 PM 33.3 °F 26.4 °F 32.4 °F 96% 29.87 in 10.0 mi NW 8.1 mph - N/A Snow Light Snow
12:35 PM 33.8 °F 27.0 °F 32.2 °F 94% 29.87 in 10.0 mi West 8.1 mph - N/A Snow Light Snow
12:55 PM 34.0 °F 28.0 °F 32.4 °F 94% 29.87 in 10.0 mi West 6.9 mph - N/A   Overcast
1:15 PM 34.7 °F 28.1 °F 32.2 °F 91% 29.87 in 10.0 mi WNW 8.1 mph - N/A   Overcast
1:35 PM 35.1 °F 29.3 °F 32.2 °F 89% 29.87 in 10.0 mi West 6.9 mph - N/A   Overcast
1:55 PM 35.4 °F 29.0 °F 32.4 °F 89% 29.87 in 10.0 mi West 8.1 mph - N/A   Overcast
2:15 PM 35.6 °F 29.9 °F 32.7 °F 89% 29.87 in 10.0 mi West 6.9 mph - N/A   Overcast
2:35 PM 36.0 °F 30.3 °F 32.9 °F 89% 29.87 in 10.0 mi West 6.9 mph - N/A   Mostly Cloudy
2:55 PM 36.5 °F 29.7 °F 32.9 °F 87% 29.87 in 10.0 mi West 9.2 mph - N/A   Clear
3:15 PM 37.6 °F 30.5 °F 32.5 °F 82% 29.88 in 10.0 mi WNW 10.4 mph 17.3 mph N/A   Clear
3:35 PM 38.8 °F 32.1 °F 32.0 °F 76% 29.88 in 10.0 mi WNW 10.4 mph 18.4 mph N/A   Clear
3:55 PM 39.2 °F 33.6 °F 31.6 °F 74% 29.89 in 10.0 mi West 8.1 mph - N/A   Clear
4:15 PM 39.2 °F 34.2 °F 30.9 °F 72% 29.89 in 10.0 mi WNW 6.9 mph 16.1 mph N/A   Clear
4:35 PM 38.7 °F 34.3 °F 30.6 °F 73% 29.90 in 10.0 mi West 5.8 mph - N/A   Clear
5:15 PM 34.9 °F 32.0 °F 31.1 °F 86% 29.90 in 10.0 mi WSW 3.5 mph - N/A   Scattered Clouds
5:35 PM 32.2 °F - 30.9 °F 95% 29.90 in 10.0 mi Calm Calm - N/A   Clear
5:55 PM 30.6 °F - 30.4 °F 99% 29.91 in 10.0 mi Calm Calm - N/A   Clear
6:15 PM 30.0 °F - 30.0 °F 100% 29.91 in 7.0 mi Calm Calm - N/A   Clear
6:35 PM 29.5 °F - 29.5 °F 100% 29.91 in 4.0 mi Calm Calm - N/A   Clear
7:15 PM 29.1 °F - 29.1 °F 100% 29.90 in 7.0 mi Calm Calm - N/A   Mostly Cloudy
7:35 PM 29.7 °F - 29.7 °F 100% 29.90 in 10.0 mi Calm Calm - N/A   Overcast
7:55 PM 31.6 °F 28.3 °F 31.1 °F 98% 29.91 in 10.0 mi WSW 3.5 mph - N/A   Overcast
8:15 PM 34.7 °F 31.8 °F 30.4 °F 84% 29.91 in 10.0 mi WSW 3.5 mph - N/A   Overcast
8:35 PM 35.4 °F 28.4 °F 29.7 °F 80% 29.91 in 10.0 mi West 9.2 mph - N/A   Mostly Cloudy
8:55 PM 37.0 °F 29.8 °F 28.6 °F 71% 29.91 in 10.0 mi West 10.4 mph 17.3 mph N/A   Scattered Clouds
9:15 PM 37.2 °F 28.7 °F 27.9 °F 69% 29.92 in 10.0 mi WNW 13.8 mph 20.7 mph N/A   Scattered Clouds
9:35 PM 37.2 °F 31.2 °F 26.4 °F 65% 29.92 in 10.0 mi West 8.1 mph - N/A   Clear
9:55 PM 36.5 °F 29.7 °F 25.5 °F 64% 29.92 in 10.0 mi West 9.2 mph 19.6 mph N/A   Clear
10:15 PM 35.8 °F 28.8 °F 25.3 °F 66% 29.92 in 10.0 mi West 9.2 mph - N/A   Clear
10:35 PM 35.4 °F 29.0 °F 25.3 °F 67% 29.92 in 10.0 mi West 8.1 mph - N/A   Mostly Cloudy
10:55 PM 35.2 °F 28.1 °F 25.3 °F 67% 29.92 in 10.0 mi West 9.2 mph - N/A   Mostly Cloudy
11:15 PM 34.7 °F 28.1 °F 25.3 °F 69% 29.92 in 10.0 mi West 8.1 mph - N/A   Scattered Clouds
11:35 PM 34.5 °F 27.9 °F 24.8 °F 68% 29.91 in 10.0 mi West 8.1 mph - N/A   Scattered Clouds
11:55 PM 34.7 °F 28.8 °F 25.2 °F 68% 29.91 in 10.0 mi West 6.9 mph - N/A   Scattered Clouds